Weather in Bayramaul

Russia / Republic of Dagestan     43°17′46″N   46°43′39″E
В апреле 2022 года жителям России запретили посещать сайт meteo.paraplan.net по решению Генеральной прокуратуры. Аудитория сайта уменьшилась в 10 раз. Владельцы сайта не видят смысла в поддержке погодного сервера в таких условиях. Сайт будет закрыт в октябре.
temp.,
°C
wind,
m/s
gust,
m/s
humid.,
%
clouds,
%
prec.,
mm/h
press.,
hPa
HPBL,
m
4 october, tue
tue400:00+16ssw017417 0.0 101511
03:00+15ne117898 0.0 101511
06:00+17wnw117082 0.0 101463
09:00+20ese4669100 0.0 1013582
12:00+26e7648100 0.0 10121157
15:00+25e6655100 0.0 1012800
18:00+20e467195 0.0 1015179
21:00+18ese127997 0.0 101630
5 october, wed
wed500:00+16w358883 0.0 1017112
03:00+16wnw3588100 0.0 1018102
06:00+15wnw2489100 0.0 101878
09:00+21nw2364100 0.0 1018516
12:00+26nw334550 0.0 10171081
15:00+27wnw8839100 0.0 10181673
18:00+22wnw4849100 0.0 1021265
21:00+19w6968100 0.0 1023638
6 october, thu
thu600:00+18wnw6873100 0.0 1024555
03:00+17wnw5772100 0.0 1024684
06:00+17wnw357599 0.0 1024528
09:00+17nw3373100 0.0 1025568
12:00+17nnw2272100 0.0 1024677
15:00+16nw2373100 0.1 1024614
18:00+15nw2378100 0.1 1026323
21:00+14nnw1182100 0.2 1026152
7 october, fri
fri700:00+14nne1183100 0.0 1026110
03:00+14nnw118387 0.1 102663
06:00+14e118390 0.0 102650
09:00+16ene336793 0.0 1026591
12:00+18e455899 0.0 1025898
15:00+19ese675789 0.0 1023994
18:00+17e586838 0.0 1024388
21:00+17ese597076 0.0 1024612
8 october, sat
sat800:00+17ese6107292 0.0 1023780
03:00+17e71171100 0.0 1022962
06:00+17ese81268100 0.0 10211007
09:00+19ese9136389 0.0 10211114
12:00+22ese11135051 0.0 10191402
15:00+21ese12145559 0.0 10171186
18:00+18ese1015670 0.0 1017777
21:00+17ese914725 0.0 1016658